Simultaneous Nadir Overpasses (SNOs) Predictions

Prediction of SNOs between NOAA-19 and TERRA Satellite Orbit:

Table of predicted SNOs for the next 14.0 days since TLE Epoch: 5/3/2014
Index Date (NOAA-19) Time (NOAA-19) Lat,Lon (NOAA-19) SZA (NOAA-19 ) Date (TERRA) Time (TERRA) Lat,Lon (TERRA) SZA (TERRA ) Distance(km) Time Diff (sec)
1 05/03/2014 15:48:02 -70.48, 124.16 125.40 05/03/2014 15:48:59 -70.50, 124.20 125.38 2.53 57
2 05/03/2014 16:39:03 70.33, -68.36 54.45 05/03/2014 16:38:27 70.35, -68.37 54.47 2.48 36
3 05/05/2014 20:32:04 -70.93, 52.46 125.58 05/05/2014 20:33:14 -70.83, 53.62 125.67 43.52 70
4 05/05/2014 21:22:58 70.39,-139.41 53.88 05/05/2014 21:22:47 70.41,-139.37 53.89 2.31 11
5 05/05/2014 22:13:39 -69.43, 29.33 127.06 05/05/2014 22:12:32 -69.47, 26.95 127.07 93.05 67
6 05/08/2014 02:06:53 70.45, 149.54 53.33 05/08/2014 02:07:07 70.45, 149.60 53.33 2.49 14
7 05/08/2014 02:57:49 -70.31, -42.98 126.82 05/08/2014 02:56:37 -70.34, -42.93 126.80 3.39 72
8 05/10/2014 06:50:47 70.47, 78.55 52.77 05/10/2014 06:51:27 70.47, 78.55 52.77 0.28 40
9 05/10/2014 07:41:43 -70.36,-114.00 127.36 05/10/2014 07:40:57 -70.37,-113.97 127.35 1.42 46
10 05/12/2014 11:34:41 70.50, 7.56 52.24 05/12/2014 11:35:47 70.48, 7.49 52.22 3.33 66
11 05/12/2014 12:25:37 -70.41, 174.97 127.87 05/12/2014 12:25:17 -70.38, 174.97 127.90 3.37 20
12 05/14/2014 16:18:48 71.21, -64.60 52.39 05/14/2014 16:19:56 71.08, -62.68 52.29 70.46 68
13 05/14/2014 17:09:30 -70.42, 104.01 128.40 05/14/2014 17:09:36 -70.43, 103.97 128.38 2.61 6
14 05/14/2014 18:00:22 69.67, -87.59 50.87 05/14/2014 17:59:13 69.77, -89.33 50.94 68.06 69
15 05/16/2014 21:53:24 -70.48, 32.96 128.85 05/16/2014 21:53:55 -70.47, 32.94 128.86 0.97 31
16 05/16/2014 22:44:28 70.34,-159.59 51.01 05/16/2014 22:43:22 70.36,-159.58 51.02 2.60 66




NCC Satellite Simultaneous Nadir Overpasses (SNOs) Prediction Service
